Location: ?????
(31.8092°N, 35.2590°E)
Time: 01:56:52
(UTC+00:00)

Lacrosse 4 Rocket - Pass Details

Date: 20 June 2021
Orbit: 543 x 614 km, 68.0° (Epoch: 04 August)

Event Time Altitude Azimuth Distance (km) Brightness Sun altitude
Rises 23:41:10 0° 342° (NNW) 2,720 5.4 -27.7°
Reaches altitude 10° 23:43:26 10° 348° (NNW) 1,817 4.5 -27.4°
Enters shadow 23:46:48 45° 35° (NE) 748 2.3 -27.1°
